sat.trackr.live / text

‹ back to catalog

LEMUR-2-LLOYD

NORAD 60577 · 2024-149DP

PAYLOAD ACTIVE UNKNOWN

§ Identity

Operator
Country
US
Launch date
2024-08-16
Launch site
AFWTR
Launch vehicle
Mass (kg)
RCS (m²)

Purposes: earth_obs

External: N2YO · Heavens-Above · Gunter

§ Orbital elements

Epoch: 2026-09-18T11:25:59.690784Z

Period
95.32 min
Inclination
97.6688°
Eccentricity
0.0003892
Mean motion
15.10762037 rev/d
Perigee alt
531.2 km
Apogee alt
536.6 km
Semi-major
6,912.0 km
B*
3.9972e-4
RAAN
342.7330°
Arg perigee
168.7314°
Mean anomaly
191.4004°
Rev number
11,447

§ Raw data

LEMUR-2-LLOYD1 60577U 24149DP  26261.47638531  .00006569  00000+0  39972-3 0  99972 60577  97.6688 342.7330 0003892 168.7314 191.4004 15.10762037114473

JSON: /api/v1/satellites/60577 · /tle

For live sub-satellite position, see the globe view (requires WebGL).

§ Visibility from observer

Set your observer location to see the next 7 days of passes ≥ 10°. The values pass through the URL so the page stays shareable.

No JS? Fill the form by hand. The geolocation button needs JavaScript.

§ Radio — SatNOGS DB

ModeDescriptionDownlinkUplink
BPSK Mode U - Transmitter 400.551 MHz

1 transmitter · refreshed weekly from db.satnogs.org